Regional Weather Roundup
Issued by NWS

Home | Current Version | Previous Version | Text Only | Print | Product List | Glossary On
Versions: 1 2 3 4 5 6 7 8 9 10 11 12 13 14 15 16 17 18 19 20 21 22 23 24 25 26 27 28 29 30 31 32 33 34 35 36 37 38 39 40 41 42 43 44 45 46 47 48 49 50
000
ASUS43 KLOT 291808
RWRIL

ILLINOIS REGIONAL WEATHER ROUNDUP
NATIONAL WEATHER SERVICE CHICAGO/ROMEOVILLE IL
100 PM CDT FRI JUL 29 2016

NOTE: "FAIR" INDICATES FEW OR NO CLOUDS BELOW 12,000 FEET WITH NO
SIGNIFICANT WEATHER AND/OR OBSTRUCTIONS TO VISIBILITY.

* THESE STATIONS ARE NOT UNDER NWS QUALITY CONTROL. THEY ALSO MAY NOT
  REPORT WEATHER SUCH AS PRECIPITATION OR FOG.

ILZ001-002-007-009-015-016-024-291900-
NORTHWEST ILLINOIS

CITY           SKY/WX    TMP DP  RH WIND       PRES   REMARKS
MOLINE         LGT RAIN  77  69  76 W12       29.93F
6HR MIN TEMP:  72; 6HR MAX TEMP:  80; 6HR PCP: TRACE;

STERLING*      CLOUDY    79  70  74 CALM      29.94F HX  82
SAVANNA*       PTSUNNY   75  68  79 NE5       29.95F
$$

ILZ003-004-008-010-011-017-018-291900-
NORTH CENTRAL ILLINOIS

CITY           SKY/WX    TMP DP  RH WIND       PRES   REMARKS
ROCKFORD       CLOUDY    78  67  68 N8        29.94F THUNDER HX  80
6HR MIN TEMP:  71; 6HR MAX TEMP:  79;

FREEPORT*      CLOUDY    73  68  84 N5        29.98S
ROCHELLE*      CLOUDY    78  71  78 CALM      29.94F HX  80
DE KALB*       CLOUDY    80  71  74 N7        29.94F HX  84
$$

ILZ005-006-012>014-019>023-291900-
NORTHEAST ILLINOIS

CITY           SKY/WX    TMP DP  RH WIND       PRES   REMARKS
CHICAGO-OHARE  PTSUNNY   79  68  69 NE12      29.92F HX  81
6HR MIN TEMP:  71; 6HR MAX TEMP:  81;

CHICAGO-MIDWAY TSTM      78  70  76 NE10      29.92S HX  80
6HR MIN TEMP:  73; 6HR MAX TEMP:  82; 6HR PCP:  0.01;

AURORA         CLOUDY    81  70  69 CALM      29.92F HX  84
6HR MIN TEMP:  71; 6HR MAX TEMP:  83;

LANSING*       TSTM      75  69  84 N10G18    29.91S
JOLIET*        CLOUDY    83  73  72 S7        29.91F HX  88
WAUKEGAN       CLOUDY    74  67  78 NE8       29.96R
6HR MIN TEMP:  73; 6HR MAX TEMP:  75;

DUPAGE AIRPORT MOSUNNY   82  69  64 NE10      29.91F THUNDER HX  85
6HR MIN TEMP:  71; 6HR MAX TEMP:  83;

KANKAKEE*      PTSUNNY   84  73  68 SW7       29.92F HX  90
WHEELING       PTSUNNY   78  68  71 NE9       29.95S HX  80
6HR MIN TEMP:  70; 6HR MAX TEMP:  79;

MORRIS*        PTSUNNY   79  71  75 CALM      29.91F HX  82
ROMEOVILLE*    MOSUNNY   80  69  69 CALM      29.91F HX  83
NORTHERLY ISL    N/A     75  68  78 NE8         N/A
$$

LMZ740>746-291900-
SOUTHERN LAKE MICHIGAN

STATION/POSITION SKY/WX   TEMP    WIND        PRES    VSBY  WAVE
                          AIR SEA DIR/SP/G                  HT/PER
                          (F)     (DEG/KT/KT) (MB)    (MI)  (FT/S)
SOUTHERN BUOY              72 74   80/ 14/ 17 1013.7F         3/ 4
WILMETTE HARBOR            73 73   70/  8/ 12   N/A           3/ 6
HARRISON CRIB              74      50/  7/  8   N/A
BURNHAM HARBOR             75      10/  5/  9   N/A
CALUMET HARBOR             75      20/  6/  8 1013.1F
BURNS HARBOR               75      30/  9/  9 1013.9F
MICHIGAN CITY              75     360/  7/  7   N/A
MICHIGAN CITY 6N           76 78   30/  8/ 12   N/A           2/ 5
ST. JOSEPH                 78 77   40/  8/ 10 1013.0F         2
$$

ILZ025>027-034>036-040-047-049-050-058-095>099-291900-
WEST-CENTRAL ILLINOIS

CITY           SKY/WX    TMP DP  RH WIND       PRES   REMARKS
QUINCY         MOSUNNY   78  69  73 W7        29.97F HX  80
GALESBURG*     MOSUNNY   76  67  73 W6        29.96S
MACOMB*        PTSUNNY   75  68  77 W10       29.99S
JACKSONVILLE*  CLOUDY    80  69  70 W10       29.96S HX  83
PITTSFIELD*    PTSUNNY   80  68  67 W7        29.98S HX  82
$$

ILZ028>032-037-038-041>044-048-051>054-059>061-291900-
CENTRAL ILLINOIS

CITY           SKY/WX    TMP DP  RH WIND       PRES   REMARKS
PONTIAC        PTSUNNY   81  74  79 SW8       29.93F HX  87
BLOOMINGTON    PTSUNNY   80  67  64 W9        29.95F HX  82
DECATUR        PTSUNNY   82  68  62 VRB6      29.95S HX  85
PEORIA         PTSUNNY   77  68  73 NW6       29.95S
6HR MIN TEMP:  68; 6HR MAX TEMP:  78;

LACON*         CLOUDY    78  68  71 W8        29.93F HX  81
LINCOLN*       MOSUNNY   80  69  69 W6        29.94S HX  83
SPRINGFIELD    PTSUNNY   81  69  67 VRB7      29.95F HX  84
6HR MIN TEMP:  68; 6HR MAX TEMP:  82;

TAYLORVILLE    PTSUNNY   78  69  74 MISG      29.96R
6HR MIN TEMP:  68; 6HR MAX TEMP:  79;

$$

ILZ033-039-045-046-055>057-062-063-291900-
EAST-CENTRAL ILLINOIS

CITY           SKY/WX    TMP DP  RH WIND       PRES   REMARKS
CHAMPAIGN      CLOUDY    80  69  69 W6        29.94S HX  83
MATTOON        MOSUNNY   82  68  62 W8        29.93S HX  85
PARIS*         CLOUDY    84  74  70 W3        29.93S HX  91
$$

ILZ079-100>102-291900-
SOUTHWEST ILLINOIS

CITY           SKY/WX    TMP DP  RH WIND       PRES   REMARKS
BELLEVILLE     PTSUNNY   84  69  60 VRB6      29.93F HX  88
CAHOKIA*       CLOUDY    84  66  54 W5        29.94F HX  86
SPARTA*        CLOUDY    83  74  75 NW5       29.96S HX  89
$$

ILZ064>066-069>071-074>076-080>082-084>086-088>090-092>094-291900-
SOUTH-CENTRAL ILLINOIS

CITY           SKY/WX    TMP DP  RH WIND       PRES   REMARKS
CARBONDALE     CLOUDY    84  73  69 SW7       29.94S HX  90
6HR MIN TEMP:  72; 6HR MAX TEMP:  85;

CAIRO*         MOSUNNY   83  76  79 W7        29.95S HX  91
EFFINGHAM*     PTSUNNY   83  71  65 W9        29.95S HX  88
MARION         PTSUNNY   84  77  79 SW7       29.95F HX  94
MT. VERNON     CLOUDY    73  66  78 MISG      29.96R VSB 3/4
CENTRALIA*     MOSUNNY   84  74  70 W9        29.93S HX  91
SALEM*         MOSUNNY   84  70  62 NW7       29.94S HX  88
METROPOLIS*    CLOUDY    83  75  76 SW3       29.96F HX  91
$$

ILZ067-068-072-073-078-083-087-091-291900-
SOUTHEAST ILLINOIS

CITY           SKY/WX    TMP DP  RH WIND       PRES   REMARKS
LAWRENCEVILLE  PTSUNNY   84  73  69 SW6       29.93S HX  90
FLORA*         CLOUDY    83  75  75 N5        29.93S HX  91
FAIRFIELD*     PTSUNNY   82  73  73 CALM      29.92S HX  88
HARRISBURG*    LGT RAIN  82  76  82 SW8       29.93F HX  90
ROBINSON*      CLOUDY    82  74  76 SW6       29.93S HX  88
CARMI*         MOSUNNY   83  76  77 S3        29.92F HX  91
$$

ABBREVIATIONS USED IN REMARKS
   TC - TEMPERATURE IN CELSIUS
  WCI - WIND CHILL INDEX
   HX - HEAT INDEX
  VSB - VISIBILITY
$$




USA.gov is the U.S. government's official web portal to all federal, state and local government web resources and services.